Skip Page Navigation
NASA JPL Caltech
NASA Logo - Jet Propulsion Laboratory + View the NASA Portal
+ Center for Near-Earth Object Studies
JPL Home Earth Solar System Stars & Galaxies Technology
JPL Solar System Dynamics
BODIES ORBITS EPHEMERIDES TOOLS PHYSICAL DATA DISCOVERY FAQ SITE MAP
JPL Small-Body Database Browser
Search: [ help ]  
410847 (2009 RG17)
Classification: Main-belt Asteroid          SPK-ID: 2410847
Ephemeris | Orbit Diagram | Orbital Elements | Mission Design | Physical Parameters | Discovery Circumstances | Close-Approach Data ]

[ show orbit diagram ]
Orbital Elements at Epoch 2459000.5 (2020-May-31.0) TDB
Reference: JPL 8 (heliocentric ecliptic J2000)
 Element Value Uncertainty (1-sigma)   Units 
e .06026907684401867 1.1585e-07  
a 3.010209050514208 5.3043e-08 au
q 2.828786529932206 3.6116e-07 au
i 14.00354930879654 1.7489e-05 deg
node 17.81305038336785 4.9418e-05 deg
peri 268.6740471367601 0.00018155 deg
M 97.08805037731362 0.00016976 deg
tp 2458486.033983945582
(2019-Jan-02.53398395)
0.0009062 TDB
period 1907.62678887687
5.22
5.0422e-05
1.38e-07
d
yr
n .1887161587890851 4.9881e-09 deg/d
Q 3.191631571096209 5.624e-08 au
  Orbit Determination Parameters
   # obs. used (total)      85  
   data-arc span      5848 days (16.01 yr)  
   first obs. used      2004-10-08  
   last obs. used      2020-10-12  
   planetary ephem.      DE431  
   SB-pert. ephem.      SB431-N16  
   condition code      0  
   norm. resid. RMS      .60702  
   source      ORB  
   producer      Otto Matic  
   solution date      2020-Nov-12 13:48:53  

Additional Information
 Earth MOID = 1.85884 au 
 Jupiter MOID = 1.94267 au 
 T_jup = 3.202 
[ show covariance matrix ]

Ephemeris | Orbit Diagram | Orbital Elements | Mission Design | Physical Parameters | Discovery Circumstances | Close-Approach Data ]

Physical Parameter Table
Parameter Symbol Value Units Sigma Reference Notes
absolute magnitude H 16.5   n/a MPO495082  

410847 (2009 RG17)          Discovered 2009-Sep-12 by Spacewatch at Kitt Peak
Reference: Last Updated: 2014-10-09

[ show close-approach data ]
Alternate Designations
 2009 RG17 = 2004 TY230 
Ephemeris | Orbit Diagram | Orbital Elements | Mission Design | Physical Parameters | Discovery Circumstances | Close-Approach Data ]
ABOUT SSD CREDITS/AWARDS PRIVACY/COPYRIGHT GLOSSARY LINKS
FirstGov 2020-Dec-03 02:03 UT
(server date/time)  
NASA Home Page
Site Manager:   Ryan S. Park
Webmaster  Alan B. Chamberlin